Wind_Speed
22 20 19 18 17 17 19 19 20 20 21 23 24 24 22 19 19 21 21 20 21 21 20 20 20 20 21 21 21 21 21 21 21 21 21 22 23 23 23 24 24 24 24 24
24 22 21 20 20 19 19 19 20 22 23 24 25 25 24 22 21 22 23 22 21 22 22 22 22 22 22 22 22 22 22 22 23 23 23 24 24 24 25 25 25 25 25 25
24 23 22 22 21 22 22 22 23 25 26 25 24 24 24 23 23 23 24 23 22 22 23 23 23 23 23 23 23 23 24 24 24 25 26 26 27 26 26 26 26 26 26 26
24 23 25 25 23 23 23 23 25 27 27 25 24 25 25 25 25 25 26 25 24 24 24 25 25 25 25 25 25 26 26 26 26 27 27 27 28 28 27 27 28 28 28 28
25 24 25 25 24 24 25 26 27 27 27 26 27 27 27 27 27 27 27 27 27 26 26 26 26 26 27 27 27 28 28 28 28 29 29 29 29 30 29 29 29 29 29 29
26 25 24 26 27 26 26 27 28 29 29 28 29 29 29 29 28 28 28 28 28 28 28 28 28 28 28 28 29 29 29 30 30 30 30 30 30 30 30 30 30 30 31 30
26 25 24 27 29 27 28 29 31 30 30 30 31 31 31 30 30 30 30 30 30 30 29 29 30 30 31 31 30 30 30 30 30 31 31 31 31 31 32 32 32 32 32 32
26 26 27 29 28 28 29 28 30 31 31 31 32 31 32 32 33 32 32 31 31 31 30 31 31 32 32 32 32 32 31 31 31 31 32 33 33 32 33 33 33 33 33 32
28 28 29 30 31 29 29 29 29 29 31 32 32 32 33 34 34 33 33 33 33 32 32 32 32 32 33 33 33 32 32 33 32 32 33 33 34 34 33 34 34 34 33 31
27 29 30 30 29 30 30 30 29 30 31 31 31 31 32 33 34 33 34 34 33 33 33 32 33 33 34 34 33 33 34 34 33 33 33 33 33 34 34 34 34 34 33 32
28 29 30 29 30 30 30 30 30 30 31 31 32 32 33 34 34 34 34 34 34 34 34 34 34 35 35 34 34 34 35 35 34 34 34 33 33 33 34 33 32 32 32 32
28 29 30 30 31 30 30 30 30 30 31 31 32 32 33 33 33 33 33 33 33 34 35 35 36 36 36 35 35 34 34 34 34 34 34 33 32 32 32 32 32 32 32 32
28 29 30 29 30 30 30 30 30 30 30 30 31 32 32 33 33 33 32 32 32 33 34 35 35 36 35 34 35 35 35 35 34 34 34 34 33 33 32 32 33 32 32 32
28 29 29 29 30 30 30 30 30 30 29 29 30 31 31 31 31 32 32 32 32 33 34 34 35 34 34 35 35 35 35 35 35 35 35 34 34 33 33 33 33 34 33 32
28 29 29 29 29 29 29 29 29 29 29 29 29 30 31 31 31 32 32 32 33 34 34 34 34 34 35 35 35 35 35 35 36 35 35 34 34 34 35 35 34 34 33 32
29 29 29 28 27 27 28 28 28 28 28 29 29 30 30 31 32 33 33 33 34 35 35 35 35 35 35 35 35 35 35 35 35 35 35 35 35 35 35 34 34 34 33 32
28 28 28 27 27 28 29 28 29 29 29 29 30 31 31 31 32 33 33 34 34 34 35 35 34 34 35 35 35 35 35 34 34 35 35 35 35 35 35 34 34 35 33 33
27 27 28 28 27 27 28 28 28 29 29 30 30 30 31 31 32 32 32 33 34 35 34 34 34 34 34 34 34 34 34 34 34 34 34 35 35 35 34 34 34 33 33 33
26 26 26 27 26 26 27 27 27 27 27 28 29 29 29 29 30 31 31 32 32 32 32 32 33 33 33 34 34 33 34 34 35 35 34 34 34 34 34 34 34 33 32 33
26 26 26 26 25 25 25 24 25 25 26 27 27 27 28 28 29 29 29 30 29 30 30 31 32 32 33 33 33 33 34 34 35 34 34 34 34 34 34 34 34 34 33 32
25 25 25 25 25 24 24 24 24 24 25 26 26 27 28 28 29 29 29 29 28 29 29 30 31 31 31 32 32 32 33 33 34 34 34 34 34 33 33 32 32 32 32 32
24 24 25 24 24 24 24 24 24 24 24 25 25 25 26 26 27 27 28 28 28 29 29 29 29 30 30 30 30 30 30 31 32 33 33 33 32 32 31 31 31 31 31 31
23 23 23 24 23 23 23 24 24 24 24 24 25 25 25 25 26 26 26 26 27 27 28 29 29 29 29 29 29 28 29 30 30 30 30 30 30 29 29 30 30 31 31 31
23 23 23 23 23 23 23 23 23 23 23 23 24 24 25 25 25 25 25 25 26 26 27 28 28 28 28 28 27 28 29 29 28 28 28 27 27 28 28 29 29 29 30 30
22 23 23 22 22 22 22 22 22 22 23 23 23 23 23 23 23 23 24 23 24 25 26 26 26 26 26 26 26 26 27 27 27 27 27 28 27 27 27 27 27 27 27 27
21 21 21 21 21 21 22 22 22 22 23 23 22 22 22 22 22 22 23 23 23 23 24 24 24 24 24 24 24 24 24 25 25 25 24 25 26 26 26 26 26 26 26 26
20 20 21 21 21 21 21 22 21 21 22 22 22 22 21 21 21 21 22 22 22 22 22 22 22 22 22 22 22 23 23 23 23 23 23 24 25 24 24 24 24 24 24 25
Wind_Direction
235 237 243 248 252 252 251 249 251 256 263 270 271 271 269 275 278 276 274 273 274 275 276 280 283 284 284 284 284 285 287 289 288 290 289 292 293 295 296 297 296 296 293 292
239 237 240 247 250 253 255 255 257 259 260 261 263 269 273 276 276 277 275 272 273 275 276 279 281 283 284 284 285 287 290 291 291 292 292 291 291 292 293 293 293 294 293 293
240 241 244 247 251 251 251 252 255 261 264 267 266 265 268 274 276 276 277 277 276 276 278 279 279 281 284 286 287 289 291 292 292 293 292 291 291 291 290 290 290 291 290 291
243 241 245 248 248 249 253 254 254 254 258 263 266 268 271 274 275 275 274 275 275 276 276 277 279 281 283 285 286 288 290 290 290 291 291 290 290 291 290 289 289 289 288 289
245 245 249 251 250 247 249 251 252 255 257 258 267 269 271 271 273 274 273 273 274 275 276 276 278 280 283 284 285 286 286 287 288 290 290 290 289 290 289 289 289 288 287 287
245 243 245 248 250 250 250 252 252 254 257 262 267 269 271 273 274 274 274 273 273 275 275 275 276 278 280 282 283 285 286 286 287 288 289 290 291 290 289 290 290 288 288 287
247 247 248 251 252 253 249 253 255 257 261 264 268 270 272 274 275 277 276 274 274 274 273 274 276 277 279 280 283 285 285 285 286 287 288 288 289 290 290 290 290 289 289 287
248 248 249 251 255 253 252 257 259 260 263 266 268 270 271 272 273 275 274 273 274 274 274 274 276 277 278 280 283 284 284 284 285 286 287 288 288 290 291 291 291 289 289 287
247 248 251 254 256 258 260 259 260 263 266 266 267 268 272 273 273 273 273 274 274 273 274 275 276 277 279 281 282 282 283 284 286 287 287 288 288 290 291 292 292 291 288 287
248 247 252 257 259 261 262 263 264 267 270 270 270 271 272 274 276 275 273 273 275 275 276 277 277 278 279 281 281 282 284 285 286 286 287 288 288 290 291 292 293 293 290 287
249 252 256 259 262 264 266 265 266 268 270 271 272 272 273 274 275 275 275 275 275 275 276 277 278 279 280 280 281 282 283 284 284 284 285 286 286 288 289 291 292 292 293 290
252 255 259 262 263 265 267 268 270 271 270 271 272 273 273 274 275 275 275 275 275 276 277 277 279 280 281 280 281 282 283 283 283 283 284 286 286 287 288 289 290 291 293 293
256 258 260 262 264 268 270 269 268 269 270 271 272 273 274 275 275 276 276 276 278 278 277 278 278 279 280 281 281 282 282 282 281 282 284 285 286 286 288 289 289 289 291 291
259 261 263 265 267 267 268 269 268 268 270 272 273 274 275 275 276 276 277 277 278 279 279 279 279 279 280 281 280 281 281 281 281 281 282 283 284 285 286 288 289 289 289 287
261 264 266 267 267 266 266 268 270 271 272 273 274 275 276 275 275 276 276 277 278 279 280 280 280 280 280 280 279 280 280 280 281 281 281 282 283 284 286 287 287 286 287 287
262 263 265 267 266 266 268 270 271 272 273 275 275 276 276 276 277 277 277 277 279 280 281 282 280 280 280 279 279 280 280 280 280 280 281 282 283 284 285 286 286 285 284 284
261 262 264 266 268 270 270 270 271 272 272 273 274 275 277 278 278 278 277 278 279 280 281 281 281 281 281 280 280 280 280 280 280 280 281 283 284 284 284 284 285 285 284 284
260 262 264 266 269 270 272 274 274 273 272 273 274 276 279 280 280 280 280 280 281 281 282 282 282 282 281 281 281 281 281 281 282 282 282 283 284 283 282 282 283 284 283 283
263 264 265 266 267 270 272 273 274 273 273 274 275 278 280 282 283 283 284 284 284 283 283 283 284 283 282 281 281 281 281 282 282 282 283 284 284 283 281 281 281 281 282 282
261 263 264 267 269 271 274 276 276 276 276 277 278 280 282 283 284 285 286 286 285 284 284 284 285 284 283 283 282 282 282 282 282 283 283 283 284 283 281 281 281 281 282 282
259 260 263 267 270 273 274 276 278 279 279 280 283 284 284 284 285 286 286 286 286 286 286 287 287 286 286 286 284 283 283 283 283 282 282 283 283 283 283 282 281 280 280 281
259 261 263 266 270 273 276 277 279 280 283 285 287 289 288 287 287 287 287 286 286 287 288 289 289 288 288 287 287 286 285 285 285 284 283 282 282 281 282 281 280 280 281 281
256 259 262 266 270 272 275 278 280 282 284 286 289 291 292 292 291 290 290 289 288 288 289 290 289 289 288 288 289 288 287 288 287 285 283 282 282 282 282 282 282 282 282 281
259 262 264 266 269 273 276 278 280 282 283 286 289 292 293 294 293 292 292 293 293 293 293 293 291 290 290 290 291 291 290 289 287 285 284 283 283 282 282 284 284 284 284 283
260 263 264 265 268 272 274 277 280 282 284 287 289 292 294 294 294 295 295 296 296 296 295 294 293 292 292 292 292 293 293 291 289 287 285 283 283 282 284 285 284 284 284 284
260 261 263 266 269 272 274 276 279 282 284 286 289 292 294 295 296 298 297 296 298 299 298 296 296 296 294 294 293 295 296 295 292 291 289 286 285 283 283 284 284 284 283 283
260 263 266 268 271 274 276 277 279 283 286 287 290 292 293 295 297 298 299 299 299 301 301 301 300 300 300 299 298 298 299 299 296 293 291 290 288 287 287 286 285 285 285 285
Height
5873 5875 5877 5877 5879 5880 5881 5883 5883 5883 5882 5880 5877 5876 5876 5875 5876 5877 5877 5877 5877 5876 5876 5875 5875 5874 5873 5872 5872 5871 5870 5869 5868 5866 5866 5865 5864 5863 5862 5860 5859 5858 5856 5855
5866 5869 5871 5872 5874 5875 5876 5877 5878 5877 5876 5874 5872 5871 5871 5871 5872 5872 5872 5872 5872 5871 5871 5871 5870 5869 5868 5867 5866 5866 5865 5864 5862 5861 5860 5859 5858 5857 5856 5854 5853 5852 5850 5849
5860 5863 5865 5867 5869 5869 5870 5871 5872 5870 5869 5867 5866 5866 5866 5866 5866 5867 5867 5867 5867 5866 5866 5865 5864 5863 5862 5862 5861 5860 5859 5858 5857 5856 5854 5853 5852 5850 5849 5848 5846 5845 5844 5842
5854 5857 5859 5863 5863 5863 5863 5864 5863 5862 5861 5861 5859 5860 5861 5861 5861 5861 5861 5861 5861 5860 5860 5859 5858 5858 5857 5856 5855 5854 5853 5851 5850 5849 5848 5847 5845 5843 5842 5840 5839 5838 5836 5835
5848 5850 5852 5855 5855 5855 5856 5856 5855 5853 5853 5854 5854 5855 5854 5854 5855 5855 5855 5855 5854 5854 5853 5853 5852 5851 5851 5850 5849 5847 5846 5844 5843 5842 5840 5839 5837 5836 5834 5833 5831 5830 5829 5827
5841 5843 5846 5847 5846 5847 5849 5848 5848 5846 5846 5848 5849 5849 5848 5847 5848 5848 5848 5848 5847 5846 5846 5845 5845 5845 5844 5843 5842 5840 5839 5837 5835 5834 5832 5831 5829 5828 5826 5824 5823 5821 5820 5818
5834 5836 5838 5838 5838 5840 5841 5840 5840 5840 5840 5841 5842 5842 5841 5840 5840 5840 5840 5839 5839 5838 5838 5838 5837 5837 5836 5835 5833 5832 5830 5829 5828 5826 5824 5823 5821 5820 5818 5816 5814 5813 5811 5809
5827 5829 5831 5829 5830 5831 5831 5832 5833 5832 5833 5834 5834 5834 5833 5833 5833 5832 5831 5831 5831 5830 5830 5830 5829 5829 5828 5827 5825 5824 5822 5821 5819 5817 5816 5814 5812 5811 5809 5807 5805 5803 5802 5800
5821 5822 5822 5822 5822 5823 5824 5824 5825 5825 5825 5826 5826 5826 5826 5825 5824 5824 5823 5823 5822 5822 5821 5821 5820 5820 5819 5818 5816 5815 5814 5812 5810 5809 5807 5805 5803 5802 5799 5798 5796 5794 5792 5790
5812 5812 5814 5814 5815 5816 5817 5817 5817 5818 5818 5818 5817 5817 5817 5816 5815 5815 5814 5814 5813 5813 5813 5812 5811 5811 5810 5809 5807 5806 5804 5803 5801 5800 5798 5796 5794 5792 5791 5789 5787 5785 5783 5781
5804 5805 5806 5807 5807 5808 5809 5810 5810 5809 5809 5809 5809 5809 5808 5807 5806 5806 5805 5805 5804 5804 5803 5802 5802 5801 5800 5799 5797 5796 5795 5793 5792 5790 5789 5787 5786 5784 5782 5780 5778 5776 5773 5771
5797 5798 5799 5800 5800 5801 5801 5801 5801 5801 5801 5800 5800 5799 5799 5798 5798 5797 5796 5795 5795 5794 5794 5793 5792 5791 5790 5788 5787 5786 5784 5783 5782 5781 5780 5778 5777 5775 5773 5771 5769 5766 5764 5763
5790 5791 5791 5792 5793 5793 5793 5793 5793 5792 5792 5792 5791 5790 5790 5789 5789 5788 5786 5786 5785 5785 5784 5783 5782 5781 5779 5778 5777 5776 5774 5773 5772 5771 5770 5769 5767 5766 5764 5763 5760 5758 5756 5754
5783 5784 5784 5784 5785 5785 5785 5785 5784 5784 5784 5783 5783 5782 5781 5781 5780 5779 5778 5777 5776 5775 5774 5773 5772 5771 5770 5768 5767 5766 5764 5763 5762 5761 5760 5759 5757 5756 5754 5753 5751 5749 5748 5745
5776 5776 5777 5777 5777 5777 5777 5777 5777 5776 5776 5775 5774 5774 5773 5772 5772 5771 5770 5768 5767 5766 5764 5763 5762 5761 5760 5758 5757 5756 5754 5753 5752 5751 5750 5749 5748 5746 5745 5743 5742 5740 5738 5736
5768 5769 5770 5769 5769 5769 5769 5769 5769 5768 5768 5767 5766 5765 5764 5764 5763 5761 5760 5759 5758 5757 5755 5753 5752 5751 5749 5748 5746 5745 5744 5743 5741 5740 5740 5739 5737 5736 5735 5734 5732 5730 5729 5728
5761 5762 5762 5762 5762 5762 5761 5761 5761 5760 5760 5759 5758 5757 5756 5755 5753 5752 5751 5750 5748 5747 5745 5744 5742 5740 5739 5738 5736 5735 5734 5733 5731 5730 5729 5728 5727 5726 5725 5723 5722 5720 5719 5718
5754 5755 5755 5755 5755 5754 5753 5753 5753 5752 5751 5750 5749 5748 5747 5745 5744 5743 5741 5740 5738 5737 5735 5733 5732 5730 5728 5727 5726 5724 5723 5722 5721 5720 5719 5718 5716 5715 5714 5713 5712 5710 5709 5708
5747 5747 5747 5747 5747 5747 5746 5745 5744 5743 5743 5742 5741 5740 5738 5737 5735 5734 5732 5730 5729 5727 5725 5723 5722 5720 5718 5717 5715 5714 5713 5712 5710 5709 5708 5707 5706 5704 5703 5702 5701 5700 5699 5699
5740 5740 5740 5740 5740 5740 5739 5738 5737 5737 5736 5734 5733 5732 5730 5729 5727 5726 5724 5722 5720 5718 5716 5714 5712 5710 5708 5707 5705 5704 5703 5701 5700 5698 5697 5696 5695 5693 5692 5692 5691 5690 5689 5689
5733 5733 5733 5734 5734 5733 5732 5732 5731 5730 5729 5727 5726 5724 5722 5721 5719 5717 5715 5714 5712 5709 5707 5704 5702 5700 5699 5697 5695 5693 5692 5690 5689 5688 5687 5686 5685 5683 5682 5681 5680 5680 5679 5678
5726 5726 5727 5727 5727 5727 5726 5725 5724 5723 5722 5720 5718 5717 5715 5713 5711 5709 5707 5705 5703 5701 5698 5696 5694 5692 5690 5688 5685 5683 5682 5680 5679 5677 5676 5675 5674 5673 5672 5671 5670 5670 5669 5668
5720 5720 5720 5721 5720 5720 5719 5719 5718 5717 5715 5713 5712 5710 5707 5705 5703 5701 5699 5697 5694 5692 5690 5688 5685 5683 5681 5679 5677 5674 5673 5671 5669 5667 5666 5665 5664 5663 5663 5662 5661 5660 5659 5659
5713 5713 5714 5714 5714 5713 5713 5712 5711 5710 5708 5707 5705 5703 5700 5698 5696 5693 5691 5689 5687 5684 5682 5680 5677 5675 5673 5670 5668 5666 5664 5662 5660 5658 5657 5656 5655 5654 5654 5653 5652 5651 5650 5650
5706 5707 5707 5707 5707 5707 5706 5705 5704 5703 5702 5700 5698 5696 5694 5691 5689 5687 5684 5682 5680 5677 5675 5672 5670 5667 5665 5663 5661 5658 5656 5653 5652 5650 5649 5648 5647 5646 5645 5644 5643 5643 5642 5641
5700 5701 5701 5701 5700 5700 5699 5699 5698 5696 5695 5693 5691 5690 5687 5685 5683 5681 5678 5676 5673 5671 5668 5666 5663 5660 5658 5656 5654 5651 5649 5646 5644 5642 5641 5640 5639 5638 5637 5636 5635 5634 5634 5633
5694 5694 5694 5694 5694 5693 5693 5692 5691 5690 5689 5687 5685 5683 5681 5679 5677 5675 5672 5670 5667 5665 5662 5659 5657 5654 5651 5649 5647 5645 5642 5640 5637 5635 5634 5632 5631 5630 5629 5628 5627 5626 5625 5625